Weather History for KCKC - June, 2012

Change the Weather History Date:

Thursday, June 21, 2012

  Actual Average Record
Temperature  
Mean Temperature 58 °F -  
Max Temperature 68 °F 67 °F 77 °F (2005)
Min Temperature 48 °F 48 °F 41 °F (2003)
Degree Days  
Heating Degree Days 7    
Growing Degree Days 8 (Base 50)    
Moisture  
Dew Point 49 °F    
Average Humidity 69    
Maximum Humidity 88    
Minimum Humidity 43    
Precipitation  
Precipitation 0.01 in - - ()
Sea Level Pressure  
Sea Level Pressure 29.83 in    
Wind  
Wind Speed 8 mph (West)    
Max Wind Speed 16 mph    
Max Gust Speed 28 mph    
Visibility 10 miles    
Events Rain    
Averages and records for this station are not official NWS values.
T = Trace of Precipitation, MM = Missing Value Source: NWS Daily Summary

Daily Weather History Graph

Daily Weather History Graph

Search for Another Location

Airport or City:

Trip Planner

Search our weather history database for the weather conditions in past years. The results will help you decide how hot, cold, wet, or windy it might be!

Date:

Astronomy

Jun. 21, 2012 Rise Set
Actual Time 5:02 AM CDT 9:04 PM CDT
Civil Twilight 4:21 AM CDT 9:45 PM CDT
Nautical Twilight 3:24 AM CDT 10:42 PM CDT
Astronomical Twilight 1:48 AM CDT 12:18 AM CDT
Moon 7:09 AM CDT (6/21) 10:15 PM CDT (6/21)
Length of Visible Light 17h 23m
Length of Day
16h 01m
Waxing Crescent, 4% of the Moon is Illuminated
Jun 21
Waxing Crescent
Jun 26
First Quarter
Jul 3
Full
Jul 10
Last Quarter
Jul 18
New

Hourly Weather History & Observations

Time (CDT) Temp. Dew Point Humidity Pressure Visibility Wind Dir Wind Speed Gust Speed Precip Events Conditions
12:13 AM 59.0 °F 55.4 °F 88% 29.74 in 10.0 mi WSW 8.1 mph - N/A   Scattered Clouds
12:34 AM 59.0 °F 55.4 °F 88% 29.73 in 10.0 mi WSW 5.8 mph - N/A   Scattered Clouds
12:53 AM 59.0 °F 55.4 °F 88% 29.73 in 10.0 mi WSW 6.9 mph - N/A   Mostly Cloudy
1:13 AM 59.0 °F 55.4 °F 88% 29.74 in 10.0 mi WSW 8.1 mph - N/A   Mostly Cloudy
1:34 AM 59.0 °F 55.4 °F 88% 29.74 in 10.0 mi West 4.6 mph - N/A   Scattered Clouds
1:53 AM 57.2 °F 53.6 °F 88% 29.73 in 10.0 mi West 9.2 mph - N/A   Clear
2:13 AM 57.2 °F 53.6 °F 88% 29.73 in 10.0 mi West 10.4 mph 17.3 mph N/A   Scattered Clouds
2:34 AM 57.2 °F 51.8 °F 82% 29.73 in 10.0 mi West 8.1 mph 21.9 mph N/A   Scattered Clouds
2:53 AM 55.4 °F 51.8 °F 88% 29.73 in 10.0 mi West 5.8 mph - N/A   Clear
3:13 AM 55.4 °F 51.8 °F 88% 29.73 in 10.0 mi West 9.2 mph 18.4 mph N/A   Clear
3:33 AM 55.4 °F 51.8 °F 88% 29.74 in 10.0 mi West 10.4 mph 17.3 mph N/A   Scattered Clouds
3:53 AM 55.4 °F 51.8 °F 88% 29.74 in 10.0 mi West 11.5 mph 17.3 mph N/A   Clear
4:13 AM 55.4 °F 50.0 °F 82% 29.75 in 10.0 mi West 6.9 mph 18.4 mph 0.01 in   Clear
4:33 AM 55.4 °F 50.0 °F 82% 29.76 in 10.0 mi WNW 9.2 mph 18.4 mph 0.01 in   Scattered Clouds
4:54 AM 55.4 °F 50.0 °F 82% 29.77 in 10.0 mi WNW 10.4 mph 16.1 mph 0.01 in   Scattered Clouds
5:13 AM 55.4 °F 50.0 °F 82% 29.77 in 10.0 mi WNW 9.2 mph - N/A   Clear
5:34 AM 55.4 °F 50.0 °F 82% 29.77 in 10.0 mi WNW 5.8 mph - N/A   Clear
5:53 AM 55.4 °F 50.0 °F 82% 29.77 in 10.0 mi WNW 5.8 mph - N/A   Clear
6:13 AM 55.4 °F 50.0 °F 82% 29.78 in 10.0 mi WNW 5.8 mph - N/A   Clear
6:33 AM 55.4 °F 50.0 °F 82% 29.78 in 10.0 mi WNW 6.9 mph - N/A   Clear
6:54 AM 57.2 °F 50.0 °F 77% 29.78 in 10.0 mi WNW 6.9 mph - N/A   Clear
7:13 AM 57.2 °F 51.8 °F 82% 29.78 in 10.0 mi WNW 6.9 mph - N/A   Scattered Clouds
7:33 AM 57.2 °F 51.8 °F 82% 29.79 in 10.0 mi West 5.8 mph - N/A   Scattered Clouds
7:54 AM 60.8 °F 51.8 °F 72% 29.79 in 10.0 mi West 5.8 mph - N/A   Clear
8:13 AM 60.8 °F 51.8 °F 72% 29.80 in 10.0 mi WSW 8.1 mph - N/A   Scattered Clouds
8:33 AM 60.8 °F 51.8 °F 72% 29.80 in 10.0 mi SW 5.8 mph - N/A   Scattered Clouds
8:54 AM 60.8 °F 51.8 °F 72% 29.81 in 10.0 mi West 6.9 mph - N/A   Mostly Cloudy
9:13 AM 62.6 °F 51.8 °F 68% 29.81 in 10.0 mi West 5.8 mph - N/A   Scattered Clouds
9:34 AM 57.2 °F 51.8 °F 82% 29.82 in 10.0 mi WNW 8.1 mph - N/A Rain Light Rain
9:53 AM 60.8 °F 51.8 °F 72% 29.82 in 10.0 mi WNW 6.9 mph - N/A   Mostly Cloudy
10:13 AM 60.8 °F 48.2 °F 63% 29.82 in 10.0 mi West 12.7 mph 18.4 mph N/A   Scattered Clouds
10:33 AM 62.6 °F 51.8 °F 68% 29.82 in 10.0 mi West 9.2 mph 20.7 mph N/A   Scattered Clouds
10:54 AM 62.6 °F 48.2 °F 59% 29.83 in 10.0 mi WNW 12.7 mph 21.9 mph N/A   Scattered Clouds
11:13 AM 64.4 °F 46.4 °F 52% 29.83 in 10.0 mi West 13.8 mph 21.9 mph N/A   Clear
11:33 AM 62.6 °F 48.2 °F 59% 29.83 in 10.0 mi West 12.7 mph 21.9 mph N/A   Scattered Clouds
11:54 AM 64.4 °F 48.2 °F 56% 29.83 in 10.0 mi West 10.4 mph 25.3 mph N/A   Scattered Clouds
12:13 PM 64.4 °F 46.4 °F 52% 29.84 in 10.0 mi West 16.1 mph 25.3 mph N/A   Scattered Clouds
12:33 PM 66.2 °F 46.4 °F 49% 29.83 in 10.0 mi WNW 13.8 mph 24.2 mph N/A   Scattered Clouds
12:54 PM 66.2 °F 44.6 °F 46% 29.84 in 10.0 mi West 16.1 mph 27.6 mph N/A   Clear
1:13 PM 66.2 °F 46.4 °F 49% 29.83 in 10.0 mi WSW 12.7 mph 27.6 mph N/A   Clear
1:33 PM 66.2 °F 44.6 °F 46% 29.84 in 10.0 mi West 11.5 mph 26.5 mph N/A   Clear
1:54 PM 66.2 °F 46.4 °F 49% 29.83 in 10.0 mi West 11.5 mph 23.0 mph N/A   Scattered Clouds
2:14 PM 66.2 °F 44.6 °F 46% 29.83 in 10.0 mi West 15.0 mph 21.9 mph N/A   Scattered Clouds
2:33 PM 66.2 °F 44.6 °F 46% 29.84 in 10.0 mi WSW 13.8 mph 18.4 mph N/A   Scattered Clouds
2:54 PM 64.4 °F 44.6 °F 49% 29.84 in 10.0 mi West 11.5 mph 21.9 mph N/A   Mostly Cloudy
3:07 PM 66.2 °F 44.6 °F 46% 29.84 in 10.0 mi West 8.1 mph 18.4 mph N/A   Scattered Clouds
3:14 PM 66.2 °F 44.6 °F 46% 29.85 in 10.0 mi WSW 10.4 mph 18.4 mph N/A   Mostly Cloudy
3:27 PM 66.2 °F 44.6 °F 46% 29.85 in 10.0 mi WNW 11.5 mph 20.7 mph N/A   Scattered Clouds
4:13 PM 68.0 °F 44.6 °F 43% 29.85 in 10.0 mi West 16.1 mph 26.5 mph N/A   Scattered Clouds
4:54 PM 64.4 °F 48.2 °F 56% 29.87 in 10.0 mi WNW 15.0 mph 21.9 mph N/A   Scattered Clouds
5:13 PM 62.6 °F 46.4 °F 55% 29.88 in 10.0 mi WNW 13.8 mph 19.6 mph N/A   Scattered Clouds
5:33 PM 62.6 °F 46.4 °F 55% 29.87 in 10.0 mi WNW 6.9 mph 16.1 mph N/A   Mostly Cloudy
5:54 PM 64.4 °F 46.4 °F 52% 29.87 in 10.0 mi West 9.2 mph 21.9 mph N/A   Scattered Clouds
6:13 PM 64.4 °F 46.4 °F 52% 29.88 in 10.0 mi WNW 11.5 mph 20.7 mph N/A   Scattered Clouds
6:34 PM 64.4 °F 46.4 °F 52% 29.88 in 10.0 mi WNW 12.7 mph 16.1 mph N/A   Scattered Clouds
6:53 PM 64.4 °F 46.4 °F 52% 29.88 in 10.0 mi NW 8.1 mph - N/A   Scattered Clouds
7:13 PM 62.6 °F 44.6 °F 52% 29.89 in 10.0 mi West 9.2 mph 17.3 mph N/A   Scattered Clouds
7:33 PM 62.6 °F 44.6 °F 52% 29.90 in 10.0 mi West 9.2 mph 18.4 mph N/A   Clear
7:54 PM 60.8 °F 48.2 °F 63% 29.91 in 10.0 mi NW 4.6 mph - N/A   Mostly Cloudy
8:13 PM 60.8 °F 48.2 °F 63% 29.91 in 10.0 mi WNW 4.6 mph - N/A   Scattered Clouds
8:34 PM 57.2 °F 48.2 °F 72% 29.92 in 10.0 mi NW 3.5 mph - N/A   Clear
8:54 PM 57.2 °F 46.4 °F 67% 29.92 in 10.0 mi WNW 3.5 mph - N/A   Clear
9:13 PM 55.4 °F 46.4 °F 72% 29.92 in 10.0 mi WNW 3.5 mph - N/A   Clear
9:34 PM 53.6 °F 46.4 °F 77% 29.93 in 10.0 mi WNW 4.6 mph - N/A   Clear
9:54 PM 53.6 °F 46.4 °F 77% 29.93 in 10.0 mi WNW 4.6 mph - N/A   Clear
10:13 PM 53.6 °F 46.4 °F 77% 29.93 in 10.0 mi WNW 3.5 mph - N/A   Clear
10:34 PM 51.8 °F 46.4 °F 82% 29.94 in 10.0 mi West 3.5 mph - N/A   Clear
10:53 PM 48.2 °F 44.6 °F 87% 29.94 in 10.0 mi Calm Calm - N/A   Clear
11:13 PM 48.2 °F 44.6 °F 87% 29.94 in 10.0 mi West 4.6 mph - N/A   Clear
11:34 PM 48.2 °F 44.6 °F 87% 29.94 in 10.0 mi Calm Calm - N/A   Clear
11:53 PM 48.2 °F 44.6 °F 87% 29.94 in 10.0 mi SW 3.5 mph - N/A   Clear